Regional Weather Roundup
Issued by NWS

Home | Current Version | Previous Version | Text Only | Print | Product List | Glossary On
Versions: 1 2 3 4 5 6 7 8 9 10 11 12 13 14 15 16 17 18 19 20 21 22 23 24 25 26 27
000
ASUS43 KDMX 240907
RWRIA

WEATHER ROUNDUP FOR IOWA
NATIONAL WEATHER SERVICE DES MOINES IA
400 AM CDT THU APR 24 2014

NOTE: "FAIR" INDICATES FEW OR NO CLOUDS BELOW 12,000 FEET WITH NO
SIGNIFICANT WEATHER AND/OR OBSTRUCTIONS TO VISIBILITY.

* - THESE STATIONS ARE NOT NWS STATIONS...THUS NOT UNDER NWS
QUALITY CONTROL.  THEY ALSO DO NOT REPORT WEATHER SUCH
AS PRECIPITATION OR FOG.

IAZ001>003-012>014-020>022-031>034-043>046-241000-
   NORTHWEST IOWA

CITY           SKY/WX    TMP DP  RH WIND       PRES   REMARKS
CARROLL *      CLOUDY    46  43  87 NE9       29.66F
CHEROKEE *     CLOUDY    46  45  93 E6        29.65R
DENISON *      CLOUDY    46  43  87 NE10G18   29.65R
LE MARS *        N/A     48  46  93 E6        29.67R FOG
ORANGE CITY *  DRIZZLE   48  46  93 E3        29.67S
SHELDON *      CLOUDY    48  45  87 SE9       29.68S
SIOUX CITY     LGT RAIN  50  47  89 S5        29.66R
SPENCER        CLOUDY    47  41  80 SE20G29   29.67R
STORM LAKE *   CLOUDY    46  43  87 SE17      29.66S
$$

IAZ055>058-069>071-079>083-090>094-241000-
   SOUTHWEST IOWA

CITY           SKY/WX    TMP DP  RH WIND       PRES   REMARKS
ATLANTIC *     CLOUDY    52  43  71 CALM      29.61F
AUDUBON *      PTCLDY    48  41  76 E7        29.63F
CLARINDA *     PTCLDY    57  43  58 S6        29.63F
COUNCIL BLFS * LGT RAIN  48  48 100 NW12G22   29.66R
CRESTON *      PTCLDY    54  43  66 SE15      29.65R
HARLAN  *      MOCLDY    50  43  76 E6        29.65F
LAMONI         LGT RAIN  58  40  51 SE13      29.67R
RED OAK *      CLOUDY    57  43  58 S9        29.59F
SHENANDOAH *   PTCLDY    59  45  58 SE9       29.60F
$$

IAZ047>049-059>061-072>074-084-241000-
   CENTRAL IOWA

CITY           SKY/WX    TMP DP  RH WIND       PRES   REMARKS
AMES           CLOUDY    46  40  79 SE17G25   29.68F THUNDER
ANKENY *       LGT RAIN  46  41  81 SE12      29.70F
CHARITON *     CLOUDY    54  37  54 S6        29.74R
DES MOINES     LGT RAIN  50  41  71 SE15G22   29.69F
GRINNELL*      CLOUDY    46  37  71 E14       29.79R
KNOXVILLE *    CLOUDY    54  37  54 SE8       29.74R
MARSHALLTOWN   CLOUDY    46  40  79 E18       29.75F
NEWTON *       MOCLDY    46  39  76 E14       29.77R
PELLA *        LGT RAIN  50  39  66 CALM      29.79R
PERRY *        CLOUDY    50  41  71 SE16G24   29.64F
$$

IAZ004>006-015-016-023>025-035-036-241000-
   NORTH CENTRAL IOWA

CITY           SKY/WX    TMP DP  RH WIND       PRES   REMARKS
ALGONA *       CLOUDY    45  41  87 E17G25    29.72F
CLARION *      LGT RAIN  45  41  87 SE8       29.77R
ESTHERVILLE    CLOUDY    44  43  96 SE25G35   29.68F
FORT DODGE *   CLOUDY    45  39  81 E13       29.72F
MASON CITY     LGT RAIN  43  40  89 E23G38    29.75F
FOREST CITY *  LGT SNOW  43  43 100 SE9       29.80R
IOWA FALLS *   LGT RAIN  45  39  81 E25       29.72F
$$

IAZ007>011-017>019-026>030-037>042-050>054-066-241000-
   NORTHEAST IOWA

CITY           SKY/WX    TMP DP  RH WIND       PRES   REMARKS
CEDAR RAPIDS   CLOUDY    44  38  79 E17G24    29.82F
CHARLES CITY * LGT RAIN  43  39  87 SE16G22   29.83R
CLINTON *      CLOUDY    43  34  70 E25       29.94F
DECORAH *      LGT RAIN  41  37  87 SE16G25   29.86F
DUBUQUE        CLOUDY    42  31  64 E17       29.92F
MONTICELLO *   MOCLDY    45  36  70 E18       29.87F
OELWEIN *      CLOUDY   N/A N/A N/A E21G28    29.85S
WATERLOO       LGT RAIN  44  38  79 SE22G28   29.79F
$$

IAZ064-065-067-068-078-241000-
   EAST CENTRAL IOWA

CITY           SKY/WX    TMP DP  RH WIND       PRES   REMARKS
DAVENPORT      CLOUDY    44  35  70 E18       29.91F
IOWA CITY      CLOUDY    47  39  74 E12       29.85F
MT. PLEASANT * MOCLDY    50  34  53 SE16      29.83F
MUSCATINE *    CLEAR     50  39  66 SE13G21   29.87F
QUAD CITIES    CLOUDY    44  37  76 E16       29.92F
$$

IAZ062-063-075>077-085>089-095>099-241000-
   SOUTHEAST IOWA

CITY           SKY/WX    TMP DP  RH WIND       PRES   REMARKS
BURLINGTON     MOCLDY    50  33  52 E14       29.86F
FAIRFIELD *    PTCLDY    52  34  50 SE20G29   29.78F
FORT MADISON * CLEAR     54  34  47 SE18      29.85F
KEOKUK *       CLEAR     52  34  50 SE15G21   29.83F
OSKALOOSA *      N/A     48  37  66 SE20G25   29.74F
CENTERVILLE *  CLEAR     50  37  62 SE20      29.71F
OTTUMWA        CLOUDY    51  34  52 SE20G25   29.74F
WASHINGTON *   CLEAR     46  39  76 E13G18    29.82F
$$

ABBREVIATIONS USED IN REMARKS
   TC - TEMPERATURES IN CELSIUS
  WCI - WIND CHILL INDEX
   HX - HEAT INDEX
  VSB - VISIBILITY
$$




USA.gov is the U.S. government's official web portal to all federal, state and local government web resources and services.